CW1309 Weather Reports


Display with metric or nautical units.
time (UTC)temp
F
wind
direction
speed
MPH
gust
MPH
rain 1hr
in
rain 24hr
in
rain mn
in
humidity
%
barometer
mb
20260506203021 83 5 8.0 12.0 0.00 0.00 0.00 84 1010.3
20260506201520 82 337 8.0 14.0 0.00 0.00 0.00 84 1010.2
20260506200022 83 29 5.0 12.0 0.00 0.00 0.00 84 1010.3
20260506194519 84 313 6.0 11.0 0.00 0.00 0.00 83 1010.0
20260506193016 84 5 3.0 6.0 0.00 0.00 0.00 85 1010.1
20260506191514 83 34 4.0 9.0 0.00 0.00 0.00 86 1010.3
20260506190022 81 58 3.0 9.0 0.00 0.00 0.00 86 1010.2
20260506184516 79 63 4.0 8.0 0.00 0.00 0.00 88 1010.6
20260506181516 77 360 7.0 12.0 0.00 0.00 0.00 90 1011.1
20260506180012 78 360 7.0 16.0 0.00 0.00 0.00 86 1011.2
20260506174510 83 71 2.0 8.0 0.00 0.00 0.00 87 1011.1
20260506173009 83 36 2.0 6.0 0.00 0.00 0.00 89 1011.3
20260506171504 80 66 4.0 10.0 0.00 0.00 0.00 93 1011.4
20260506170100 79 65 5.0 10.0 0.00 0.00 0.00 96 1011.7
20260506164557 78 53 3.0 9.0 0.00 0.00 0.00 97 1011.8
20260506163103 78 15 3.0 8.0 0.00 0.00 0.00 97 1012.1
20260506161558 78 45 2.0 8.0 0.00 0.00 0.00 97 1012.0
20260506160053 78 9 3.0 5.0 0.00 0.00 0.00 97 1011.7
20260506154550 77 66 3.0 5.0 0.00 0.00 0.00 97 1011.3
20260506153047 77 55 3.0 6.0 0.00 0.00 0.00 98 1011.0
20260506151547 77 100 1.0 6.0 0.00 0.00 0.00 99 1010.8
20260506150045 76 74 2.0 6.0 0.00 0.00 0.00 99 1010.7
20260506144559 76 85 2.0 6.0 0.00 0.00 0.00 100 1010.8
20260506143041 76 115 2.0 4.0 0.00 0.00 0.00 100 1010.4
20260506141539 76 121 0.0 4.0 0.00 0.00 0.00 100 1010.3
20260506140037 75 175 0.0 3.0 0.00 0.00 0.00 100 1009.9
20260506134536 75 92 1.0 8.0 0.00 0.00 0.00 100 1009.6
20260506133041 75 101 1.0 6.0 0.00 0.00 0.00 100 1009.6
20260506131536 75 92 4.0 7.0 0.00 0.00 0.00 100 1009.6
20260506130037 75 113 1.0 6.0 0.00 0.00 0.00 100 1009.8
20260506124531 74 108 1.0 3.0 0.00 0.00 0.00 100 1009.8
20260506123030 74 112 0.0 4.0 0.00 0.00 0.00 100 1009.7
20260506120029 74 117 0.0 4.0 0.00 0.00 0.00 100 1009.4
20260506114526 74 157 1.0 3.0 0.00 0.00 0.00 100 1009.4
20260506113024 74 159 1.0 2.0 0.00 0.00 0.00 100 1009.4
20260506111523 74 160 0.0 2.0 0.00 0.00 0.00 100 1009.2
20260506110023 74 160 0.0 2.0 0.00 0.00 0.00 100 1009.2
20260506104526 74 160 0.0 2.0 0.00 0.00 0.00 100 1009.1
20260506103025 74 160 0.0 3.0 0.00 0.00 0.00 100 1009.0
20260506101523 74 159 0.0 2.0 0.00 0.00 0.00 100 1009.0
20260506100020 74 162 0.0 5.0 0.00 0.00 0.00 100 1008.8
20260506094520 74 157 0.0 3.0 0.00 0.00 0.00 100 1008.6
20260506093018 74 166 2.0 3.0 0.00 0.00 0.00 100 1008.6
20260506091518 75 167 0.0 3.0 0.00 0.00 0.00 99 1008.8
20260506090021 75 166 1.0 4.0 0.00 0.00 0.00 99 1008.8
20260506084531 75 173 1.0 4.0 0.00 0.00 0.00 99 1008.7
20260506083013 75 172 1.0 6.0 0.00 0.00 0.00 99 1008.6
20260506081516 75 161 0.0 2.0 0.00 0.00 0.00 99 1008.7
20260506073011 75 159 2.0 6.0 0.00 0.00 0.00 99 1008.8
20260506071509 75 134 1.0 5.0 0.00 0.00 0.00 99 1009.1
20260506061505 75 192 0.0 4.0 0.00 0.00 0.00 98 1009.4
20260506050158 76 121 2.0 5.0 0.00 0.00 0.00 96 1009.3
20260506044558 77 166 2.0 4.0 0.00 0.00 0.00 95 1009.3
20260506043101 77 138 3.0 9.0 0.00 0.00 0.00 95 1008.9
20260506041557 77 171 3.0 11.0 0.00 0.00 0.00 95 1008.8
20260506040054 77 134 3.0 11.0 0.00 0.00 0.00 94 1008.7
20260506034558 77 138 5.0 15.0 0.00 0.00 0.00 94 1008.5
20260506033109 77 136 5.0 12.0 0.00 0.00 0.00 94 1008.4
20260506031554 78 168 2.0 8.0 0.00 0.00 0.00 94 1008.3
20260506030100 78 144 1.0 7.0 0.00 0.00 0.00 93 1007.9
20260506024607 79 139 3.0 8.0 0.00 0.00 0.00 93 1007.8
20260506023057 79 115 2.0 6.0 0.00 0.00 0.00 92 1007.8
20260506021557 80 103 2.0 5.0 0.00 0.00 0.00 91 1007.6
20260506020050 80 113 1.0 6.0 0.00 0.00 0.00 91 1007.5
20260506014550 80 151 1.0 5.0 0.00 0.00 0.00 91 1007.4
20260506013052 81 136 2.0 6.0 0.00 0.00 0.00 90 1007.1
20260506011610 81 144 2.0 5.0 0.00 0.00 0.00 89 1007.0
20260506010048 82 162 2.0 7.0 0.00 0.00 0.00 88 1006.8
20260506004547 82 123 3.0 8.0 0.00 0.00 0.00 87 1006.6
20260506003047 83 167 2.0 7.0 0.00 0.00 0.00 86 1006.5
20260506001546 84 136 3.0 9.0 0.00 0.00 0.00 85 1006.4
20260506000053 85 121 3.0 8.0 0.00 0.00 0.00 84 1006.1
20260505234545 85 124 2.0 7.0 0.00 0.00 0.00 83 1006.1
20260505233045 85 128 3.0 8.0 0.00 0.00 0.00 83 1006.1
20260505230042 86 136 2.0 8.0 0.00 0.00 0.00 82 1006.0
20260505224541 86 164 4.0 11.0 0.00 0.00 0.00 81 1006.1
20260505223016 86 167 2.0 8.0 0.00 0.00 0.00 81 1006.2
20260505221536 86 206 3.0 12.0 0.00 0.00 0.00 81 1006.3
20260505220051 86 171 2.0 7.0 0.00 0.00 0.00 81 1006.4
20260505214632 86 202 2.0 8.0 0.00 0.00 0.00 82 1006.6
20260505213032 86 179 5.0 10.0 0.00 0.00 0.00 82 1006.8
20260505211534 85 150 3.0 10.0 0.00 0.00 0.00 83 1007.0
20260505210025 85 169 2.0 12.0 0.00 0.00 0.00 83 1007.1
20260505204525 85 134 3.0 10.0 0.00 0.00 0.00 83 1007.5